Cloud_Cover
76 99 100 83 5 59 5 1 0 5 2 0 5 48 5 3 0 0 5 0 0 0 0 1 0 0 2 5 4 0 0 0 18 32 46 5 0 1 0 0 5 5 13 62
100 100 100 100 100 84 24 4 4 1 0 0 2 70 100 4 4 0 0 0 0 0 0 1 5 0 1 24 5 0 0 0 10 97 100 77 5 23 5 5 5 5 6 60
100 100 100 100 100 100 100 4 4 5 6 5 5 95 100 98 75 57 93 83 59 5 0 4 4 0 0 4 0 0 0 81 100 100 100 71 73 72 80 50 19 60 91 52
100 100 100 38 49 100 32 98 4 5 2 6 67 100 100 100 100 100 100 100 71 5 5 0 0 0 0 0 0 0 19 100 100 100 100 100 96 23 5 5 5 5 1 5
100 98 100 100 100 83 5 16 29 6 5 0 8 3 100 100 100 100 100 100 100 100 100 37 31 29 26 7 26 98 100 100 100 100 82 96 5 5 5 4 4 1 4 5
100 98 62 34 33 100 100 65 16 28 57 84 88 1 95 100 100 100 100 100 100 77 34 78 93 100 100 99 100 100 99 96 100 97 100 100 100 5 2 0 5 2 3 5
100 100 100 100 100 100 100 100 75 8 12 100 100 12 93 45 34 100 100 100 100 100 100 65 42 82 100 100 100 96 94 74 99 100 100 100 100 98 7 4 2 6 64 7
100 100 100 100 100 100 100 100 100 88 75 100 100 27 100 100 100 88 32 100 100 100 100 100 6 28 58 56 55 9 12 96 100 100 100 100 100 98 58 21 95 10 6 5
100 100 99 93 100 100 100 100 100 100 100 100 100 100 100 100 100 100 100 100 100 100 100 99 29 5 1 5 7 34 72 62 80 100 100 100 100 91 85 98 77 5 44 4
100 100 100 98 94 82 100 100 100 100 98 60 80 100 100 100 100 100 100 100 100 100 100 92 91 10 5 47 26 55 91 100 100 100 100 100 100 100 100 100 56 5 5 3
94 100 100 100 100 100 100 100 100 100 100 82 59 94 100 100 100 100 100 100 100 100 100 100 100 100 78 17 13 20 49 89 100 63 65 85 84 95 21 24 25 15 5 5
100 100 100 100 100 100 100 100 100 100 100 100 80 25 100 100 100 100 100 100 100 100 100 92 6 99 100 91 100 62 9 7 5 5 27 51 42 36 5 5 5 5 5 2
100 100 99 44 100 100 100 100 100 100 100 99 5 0 100 100 100 100 100 100 100 100 100 84 20 5 5 5 5 5 5 5 5 5 5 5 14 8 5 3 0 0 5 5
100 100 100 93 96 100 100 100 100 100 100 30 80 4 93 100 100 100 100 100 100 98 78 68 7 37 24 28 6 5 5 5 5 16 50 11 5 5 0 1 2 5 5 5
100 100 100 100 99 65 99 100 100 100 100 99 27 16 96 100 100 100 100 100 100 99 99 66 82 5 5 5 5 38 5 5 5 5 55 99 78 19 5 5 5 5 35 72
100 100 100 100 55 98 100 100 100 100 100 100 100 37 98 100 100 100 100 100 100 100 100 100 78 37 6 66 75 7 6 5 5 5 5 5 5 5 5 6 64 81 100 100
100 100 100 100 100 100 100 43 87 100 100 100 97 7 99 100 100 100 100 100 100 100 100 100 100 69 32 75 91 100 100 100 68 5 5 5 5 6 67 99 100 100 100 100
100 100 100 100 100 100 100 100 100 81 100 100 100 100 100 89 100 100 100 100 100 100 100 24 99 91 50 90 55 60 37 5 4 6 28 87 21 64 93 100 100 100 100 100
100 100 100 100 100 100 100 58 100 100 100 100 100 100 71 100 100 95 88 100 100 98 100 7 5 9 5 4 11 5 67 98 100 76 36 59 87 93 98 100 100 100 100 100
100 100 100 100 100 100 100 97 100 100 100 100 100 100 100 100 100 70 88 100 25 98 100 100 74 7 3 45 33 79 100 100 95 72 99 26 100 100 100 100 100 100 100 100
100 100 100 100 100 100 94 100 100 100 53 100 100 98 100 100 100 100 100 100 100 100 100 100 100 100 95 100 100 100 79 98 100 100 100 99 67 100 100 100 100 100 100 100
100 100 61 100 100 100 100 68 55 99 98 91 100 99 100 100 100 100 100 100 100 100 100 100 100 100 100 100 100 100 100 100 100 86 70 47 82 100 100 100 100 100 100 100
99 100 100 100 100 100 100 100 100 100 100 100 100 92 100 100 100 100 100 100 100 100 100 100 100 100 100 100 100 100 100 100 98 100 100 96 100 100 99 100 100 100 100 100
95 100 100 100 99 26 100 100 100 100 100 100 100 100 100 100 100 100 93 100 58 98 100 100 100 100 100 100 100 60 100 97 99 100 100 100 100 100 100 100 100 100 100 100
0 0 67 96 100 100 100 100 100 100 100 100 100 100 100 100 100 100 100 100 66 86 100 100 100 100 100 100 100 100 85 100 100 100 100 100 100 100 100 100 100 100 100 100
0 0 0 0 20 98 26 30 100 85 84 100 100 100 100 100 100 100 100 94 26 100 100 100 100 100 100 100 100 100 100 100 100 100 100 100 100 100 100 100 100 100 100 100